Regional Weather Roundup
Issued by NWS Sterling, VA

Home | Current Version | Previous Version | Graphics & Text | Print | Product List | Glossary On
Versions: 1 2 3 4 5 6 7 8 9 10 11 12 13 14 15 16 17 18 19 20 21 22 23 24 25 26 27 28 29 30 31 32 33 34 35 36 37 38 39 40 41 42 43 44 45 46 47 48 49 50
677
ASUS41 KLWX 201410
RWRLWX

REGIONAL WEATHER ROUNDUP
NATIONAL WEATHER SERVICE BALTIMORE MD/WASHINGTON DC
900 AM EST MON FEB 20 2017

Note: "FAIR" indicates few or no clouds below 12,000 feet
with no significant weather and/or obstructions to visibility.
 TC=TEMPERATURE CELSIUS

 * =Non NWS site. Station does not report precipitation (e.g. rain,
    snow, etc.), thunder, or fog.

DCZ001-MDZ009-015-VAZ040>042-051-053>054-201500-
WASHINGTON METRO

CITY           SKY/WX    TMP DP  RH WIND       PRES   REMARKS
WASHINGTON NAT MOSUNNY   57  43  59 NW13      30.24R
DULLES         MOSUNNY   54  41  61 N10       30.24R
ANDREWS AFB    SUNNY     56  41  57 NW13      30.22R
FT BELVOIR     SUNNY     52  42  69 CALM      30.24R
QUANTICO       SUNNY     48  43  82 CALM      30.25R
COLLEGE PARK*  SUNNY     55  37  50 NW5       30.23R
LEESBURG*      SUNNY     54  45  71 MISG      30.25S
MANASSAS*      MOSUNNY   50  44  80 CALM      30.24R
GAITHERSBURG*  SUNNY     54  37  54 NW8G16    30.27R

$$

MDZ006>007-011-014-201500-
BALTIMORE METRO

CITY           SKY/WX    TMP DP  RH WIND       PRES   REMARKS
BWI AIRPORT    MOSUNNY   55  39  54 N5        30.23R
MD SCIENCE CTR   N/A     55  32  41 MISG      30.24R
MARTIN STATE   SUNNY     54  37  54 CALM        N/A
ANNAPOLIS      SUNNY     52  39  61 NW7       30.23R
FORT MEADE*    SUNNY     52  41  66 NW5       30.25S

$$

MDZ012-015-019>023-201500-
MARYLAND EASTERN SHORE

CITY           SKY/WX    TMP DP  RH WIND       PRES   REMARKS
OCEAN CITY     SUNNY     54  38  54 N9        30.21R
SALISBURY      SUNNY     54  39  57 N8        30.20R
BAY BRIDGE AP* SUNNY     52  37  58 N8        30.24R
EASTON*        SUNNY     54  39  58 NE5       30.26R

$$

MDZ017>025-201500-
SOUTHERN MARYLAND

CITY           SKY/WX    TMP DP  RH WIND       PRES   REMARKS
PATUXENT RIVER SUNNY     54  44  69 NW9       30.22R
ST INIGOES     SUNNY     56  44  64 VRB6      30.22R
LEONARDTOWN*   SUNNY     55  41  58 N7        30.24R

$$

MDZ003>005-201500-
NORTH CENTRAL MARYLAND

CITY           SKY/WX    TMP DP  RH WIND       PRES   REMARKS
FREDERICK*     SUNNY     54  43  66 VRB5      30.27R
HAGERSTOWN APT SUNNY     53  39  59 W10       30.24R
WESTMINSTER*   SUNNY     52  36  54 NW7       30.23R

$$

MDZ501>502-201500-
WESTERN MARYLAND

CITY           SKY/WX    TMP DP  RH WIND       PRES   REMARKS
OAKLAND*       CLOUDY    41  39  93 W6        30.25R FOG
CUMBERLAND*    MOSUNNY   46  41  81 CALM      30.30R

$$

VAZ025>031-201500-
SHENANDOAH VALLEY

CITY           SKY/WX    TMP DP  RH WIND       PRES   REMARKS
WINCHESTER*    SUNNY     54  41  62 NW9       30.24R
FRONT ROYAL*   SUNNY     48  37  66 S6        30.23S
LURAY*         MOSUNNY   43  39  87 CALM      30.25R
NEW MARKET*    MOSUNNY   40  34  78 CALM      30.24R
STAUNTON*      CLOUDY    39  34  82 CALM      30.28R
WAYNESBORO*    SUNNY     44  36  73 CALM      30.25R

$$

WVZ021-048>050-054>055-201500-
EASTERN WEST VIRGINIA PANHANDLE

CITY           SKY/WX    TMP DP  RH WIND       PRES   REMARKS
MARTINSBURG    SUNNY     51  41  68 E3        30.24R
PETERSBURG*    SUNNY     40  38  93 CALM      30.28R FOG

$$

VAZ036>039-050-201500-
CENTRAL FOOTHILLS

CITY           SKY/WX    TMP DP  RH WIND       PRES   REMARKS
CHARLOTTESVILL MOSUNNY   57  37  47 SW3       30.22R
CULPEPER*      MOSUNNY   51  41  69 CALM      30.24S
ORANGE*        SUNNY     52  41  66 CALM      30.24R
GORDONSVILLE*  MOSUNNY   51  39  64 CALM      30.22R
WARRENTON*     MOSUNNY   53  40  61 CALM      30.23R

$$

VAZ055>057-201500-
NORTH AND CENTRAL PIEDMONT

CITY           SKY/WX    TMP DP  RH WIND       PRES   REMARKS
FREDERICKSBRG* SUNNY     48  42  79 CALM      30.24R
STAFFORD*      SUNNY     49  42  76 CALM      30.28R

$$

NCZ024-NYZ072-PAZ021-071-VAZ022-071-201500-
OTHER REGIONAL OBSERVATIONS

CITY           SKY/WX    TMP DP  RH WIND       PRES   REMARKS
NEW YORK CITY  SUNNY     45  30  55 NW12      30.20R
PHILADELPHIA   SUNNY     50  32  50 N14       30.23R
PITTSBURGH     FOG       41  41 100 CALM      30.29R VSB<1/4
ROANOKE        MOSUNNY   51  41  68 N5        30.26R
RICHMOND       MOSUNNY   58  44  60 NE7       30.23R
RALEIGH        MOSUNNY   56  42  59 N5        30.23R

$$

ANZ530>537-201500-
MARINE OBSERVATIONS

STATION/POSITION TIME  TEMP    WIND        PRES
                       AIR SEA DIR/SP/G
                 (UTC) (F)     (DEG/KT/KT) (MB)
THOMAS PT LIGHT  1400   51 41  360/  5/  6   N/A
BALT KEY BRIDGE  1348   49     330/  2/  3 1023.9R
COVE POINT       1348   52     340/ 12/ 12 1024.0R
LEWISETTA        1348   51 45  360/  7/ 10 1023.4R
SOLOMONS ISLAND  1348   53 43  290/  4/  5   N/A
PINEY POINT      1348          340/  5/  5   N/A

$$





USA.gov is the U.S. government's official web portal to all federal, state and local government web resources and services.